TimeMST,TemperatureF,Dew PointF,Humidity,Sea Level PressureIn,VisibilityMPH,Wind Direction,Wind SpeedMPH,Gust SpeedMPH,PrecipitationIn,Events,Conditions,WindDirDegrees,DateUTC
12:15 AM,42.8,17.6,36,30.11,10.0,NNW,4.6,-,N/A,,Clear,330,2012-12-03 07:15:00
12:35 AM,42.8,17.6,36,30.12,10.0,Calm,Calm,-,N/A,,Clear,0,2012-12-03 07:35:00
12:55 AM,41.0,17.6,39,30.12,10.0,NW,3.5,-,N/A,,Clear,310,2012-12-03 07:55:00
1:15 AM,41.0,17.6,39,30.11,10.0,West,6.9,-,N/A,,Clear,280,2012-12-03 08:15:00
1:35 AM,42.8,17.6,36,30.12,10.0,NW,3.5,-,N/A,,Clear,310,2012-12-03 08:35:00
1:55 AM,41.0,17.6,39,30.11,10.0,WNW,4.6,-,N/A,,Clear,290,2012-12-03 08:55:00
2:15 AM,41.0,17.6,39,30.11,10.0,Calm,Calm,-,N/A,,Clear,0,2012-12-03 09:15:00
2:35 AM,35.6,15.8,44,30.12,10.0,Calm,Calm,-,N/A,,Clear,0,2012-12-03 09:35:00
2:55 AM,39.2,17.6,42,30.12,10.0,WNW,3.5,-,N/A,,Clear,290,2012-12-03 09:55:00
3:15 AM,39.2,17.6,42,30.12,10.0,West,3.5,-,N/A,,Clear,270,2012-12-03 10:15:00
3:35 AM,41.0,17.6,39,30.12,10.0,WNW,3.5,-,N/A,,Clear,300,2012-12-03 10:35:00
3:55 AM,41.0,19.4,42,30.11,10.0,West,6.9,-,N/A,,Clear,270,2012-12-03 10:55:00
4:15 AM,42.8,21.2,42,30.10,10.0,West,5.8,-,N/A,,Clear,260,2012-12-03 11:15:00
4:35 AM,37.4,17.6,45,30.11,10.0,North,4.6,-,N/A,,Clear,360,2012-12-03 11:35:00
4:55 AM,35.6,14.0,41,30.11,10.0,Calm,Calm,-,N/A,,Clear,0,2012-12-03 11:55:00
5:15 AM,35.6,14.0,41,30.12,10.0,WNW,3.5,-,N/A,,Clear,300,2012-12-03 12:15:00
5:35 AM,35.6,17.6,48,30.13,10.0,West,8.1,-,N/A,,Clear,280,2012-12-03 12:35:00
5:55 AM,35.6,17.6,48,30.14,10.0,NW,4.6,-,N/A,,Clear,320,2012-12-03 12:55:00
6:15 AM,35.6,17.6,48,30.15,10.0,WNW,3.5,-,N/A,,Clear,290,2012-12-03 13:15:00
6:35 AM,35.6,15.8,44,30.16,10.0,NW,3.5,-,N/A,,Clear,320,2012-12-03 13:35:00
6:55 AM,33.8,14.0,44,30.15,10.0,West,6.9,-,N/A,,Clear,270,2012-12-03 13:55:00
7:15 AM,35.6,15.8,44,30.17,10.0,North,4.6,-,N/A,,Clear,350,2012-12-03 14:15:00
7:35 AM,41.0,19.4,42,30.18,10.0,WNW,4.6,-,N/A,,Clear,290,2012-12-03 14:35:00
8:15 AM,46.4,21.2,37,30.19,10.0,West,4.6,-,N/A,,Clear,280,2012-12-03 15:15:00
8:35 AM,50.0,23.0,35,30.19,10.0,Calm,Calm,-,N/A,,Clear,0,2012-12-03 15:35:00
8:55 AM,53.6,26.6,35,30.19,10.0,West,4.6,-,N/A,,Clear,270,2012-12-03 15:55:00
9:15 AM,55.4,26.6,33,30.19,10.0,NW,5.8,-,N/A,,Clear,310,2012-12-03 16:15:00
9:35 AM,57.2,26.6,31,30.19,10.0,WNW,5.8,-,N/A,,Clear,300,2012-12-03 16:35:00
9:55 AM,59.0,30.2,34,30.20,10.0,NW,6.9,-,N/A,,Clear,320,2012-12-03 16:55:00
10:15 AM,60.8,32.0,34,30.20,10.0,WNW,6.9,-,N/A,,Clear,300,2012-12-03 17:15:00
10:35 AM,60.8,32.0,34,30.20,10.0,NW,8.1,-,N/A,,Clear,320,2012-12-03 17:35:00
10:55 AM,62.6,32.0,32,30.20,10.0,NW,9.2,-,N/A,,Clear,310,2012-12-03 17:55:00
11:15 AM,62.6,32.0,32,30.19,10.0,NW,8.1,-,N/A,,Clear,320,2012-12-03 18:15:00
11:35 AM,64.4,32.0,30,30.18,10.0,NW,10.4,-,N/A,,Clear,310,2012-12-03 18:35:00
11:55 AM,64.4,32.0,30,30.17,10.0,WNW,9.2,16.1,N/A,,Clear,290,2012-12-03 18:55:00
12:15 PM,66.2,32.0,28,30.16,10.0,West,12.7,16.1,N/A,,Clear,280,2012-12-03 19:15:00
12:35 PM,66.2,32.0,28,30.15,10.0,NW,11.5,18.4,N/A,,Clear,310,2012-12-03 19:35:00
12:55 PM,68.0,32.0,26,30.14,10.0,NW,13.8,-,N/A,,Clear,310,2012-12-03 19:55:00
1:15 PM,69.8,30.2,23,30.14,10.0,WNW,8.1,16.1,N/A,,Clear,300,2012-12-03 20:15:00
1:35 PM,69.8,30.2,23,30.12,10.0,West,10.4,17.3,N/A,,Clear,270,2012-12-03 20:35:00
1:55 PM,69.8,30.2,23,30.12,10.0,WNW,15.0,20.7,N/A,,Clear,300,2012-12-03 20:55:00
2:15 PM,69.8,32.0,25,30.11,10.0,WNW,12.7,17.3,N/A,,Clear,290,2012-12-03 21:15:00
2:35 PM,69.8,30.2,23,30.11,10.0,WNW,15.0,18.4,N/A,,Clear,300,2012-12-03 21:35:00
2:55 PM,69.8,32.0,25,30.11,10.0,NW,11.5,23.0,N/A,,Clear,310,2012-12-03 21:55:00
3:15 PM,69.8,32.0,25,30.11,10.0,WNW,15.0,-,N/A,,Clear,300,2012-12-03 22:15:00
3:35 PM,68.0,32.0,26,30.12,10.0,WNW,15.0,18.4,N/A,,Clear,290,2012-12-03 22:35:00
3:55 PM,68.0,32.0,26,30.11,10.0,WNW,12.7,-,N/A,,Clear,290,2012-12-03 22:55:00
4:15 PM,68.0,32.0,26,30.11,10.0,WNW,12.7,18.4,N/A,,Clear,290,2012-12-03 23:15:00
4:35 PM,66.2,32.0,28,30.11,10.0,West,9.2,-,N/A,,Clear,280,2012-12-03 23:35:00
4:55 PM,64.4,32.0,30,30.13,10.0,WNW,6.9,-,0.03,,Clear,290,2012-12-03 23:55:00
5:15 PM,62.6,32.0,32,30.14,10.0,NW,3.5,-,N/A,,Clear,320,2012-12-04 00:15:00
5:35 PM,60.8,32.0,34,30.14,10.0,Calm,Calm,-,N/A,,Clear,0,2012-12-04 00:35:00
5:55 PM,60.8,32.0,34,30.14,10.0,WNW,3.5,-,N/A,,Clear,300,2012-12-04 00:55:00
6:15 PM,57.2,32.0,38,30.15,10.0,NW,5.8,-,N/A,,Clear,310,2012-12-04 01:15:00
6:35 PM,55.4,32.0,41,30.16,10.0,WNW,8.1,-,N/A,,Clear,300,2012-12-04 01:35:00
6:55 PM,53.6,32.0,44,30.16,10.0,WNW,8.1,-,N/A,,Clear,290,2012-12-04 01:55:00
7:15 PM,51.8,32.0,47,30.17,10.0,WNW,5.8,-,N/A,,Clear,290,2012-12-04 02:15:00
7:35 PM,51.8,32.0,47,30.18,10.0,Calm,Calm,-,N/A,,Clear,0,2012-12-04 02:35:00
7:55 PM,51.8,32.0,47,30.19,10.0,Calm,Calm,-,N/A,,Clear,0,2012-12-04 02:55:00
8:15 PM,53.6,32.0,44,30.19,10.0,NW,3.5,-,N/A,,Clear,310,2012-12-04 03:15:00
8:35 PM,50.0,32.0,50,30.19,10.0,West,4.6,-,N/A,,Clear,280,2012-12-04 03:35:00
8:55 PM,46.4,32.0,57,30.20,10.0,North,-9999.0,-,N/A,,Clear,0,2012-12-04 03:55:00
9:15 PM,50.0,32.0,50,30.20,10.0,West,4.6,-,N/A,,Clear,270,2012-12-04 04:15:00
9:35 PM,46.4,32.0,57,30.20,10.0,West,3.5,-,N/A,,Clear,280,2012-12-04 04:35:00
9:55 PM,50.0,32.0,50,30.19,10.0,WSW,5.8,-,N/A,,Clear,250,2012-12-04 04:55:00
10:15 PM,46.4,32.0,57,30.20,10.0,Calm,Calm,-,N/A,,Clear,0,2012-12-04 05:15:00
10:35 PM,44.6,30.2,57,30.21,10.0,North,5.8,-,N/A,,Clear,360,2012-12-04 05:35:00
10:55 PM,44.6,32.0,61,30.21,10.0,North,3.5,-,N/A,,Clear,360,2012-12-04 05:55:00
11:15 PM,42.8,28.4,57,30.22,10.0,Calm,Calm,-,N/A,,Clear,0,2012-12-04 06:15:00
11:35 PM,42.8,30.2,61,30.23,10.0,Calm,Calm,-,N/A,,Clear,0,2012-12-04 06:35:00
11:55 PM,42.8,32.0,66,30.23,10.0,WSW,5.8,-,N/A,,Clear,250,2012-12-04 06:55:00